User: anonymous   Login
Location: Unspecified
(0.0000°N, 0.0000°E)
Time: 22:18:14
(UTC+00:00)
Language:

USA 200 - Orbit

View from above orbital plane
View from above orbital plane
View from above satellite
View from above satellite

Ground track
Ground track

The orbit data is extracted from the following two-line orbital elements,

1 32706U 08010A   19045.44974419 0.00000000  00000-0  00000-0 0    01
2 32706  63.2350 268.7672 6945924 272.1664  16.5891  2.00616000    09
Epoch (UTC): 14 February 2019 10:47:37
Eccentricity: 0.6945924
inclination: 63.2350°
perigee height: 1732 km
apogee height: 38622 km
right ascension of ascending node: 268.7672°
argument of perigee: 272.1664°
revolutions per day: 2.00616000
mean anomaly at epoch: 16.5891°
orbit number at epoch: 0

The dashed part of the orbit path shows where the satellite is in the earth's shadow,  

DLR